Location: G�ndlingen
(48.0142°N, 7.6396°E)
Time: 02:50:48
(UTC+00:00)

Cosmos 2058 - Pass Details

Date: 05 July 2020
Orbit: 561 x 584 km, 82.5° (Epoch: 04 August)

Event Time Altitude Azimuth Distance (km) Brightness Sun altitude
Exits shadow 21:25:00 22° 137° (SE) 1,287 4.1 -13.6°
Maximum altitude 21:26:55 33° 91° (E) 984 3.8 -13.8°
Drops below altitude 10° 21:30:39 10° 27° (NNE) 1,887 6.0 -14.1°
Sets 21:32:58 0° 18° (NNE) 2,786 7.1 -14.3°
